FW5156 Weather Reports


time (UTC)temp
C
wind
direction
speed
KPH
gust
KPH
rain 1hr
cm
rain 24hr
cm
rain mn
cm
humidity
%
barometer
mb
20260906083516 22 0.0 4.8 0.00 0.10 0.00 91 1015.3
20260906082516 22 0 1.6 8.0 0.00 0.10 0.00 92 1015.4
20260906081536 22 0.0 0.0 0.00 0.10 0.00 93 1015.3
20260906080516 22 0.0 3.2 0.00 0.10 0.00 93 1015.2
20260906075516 22 0.0 3.2 0.00 0.10 0.00 93 1015.2
20260906074536 22 0.0 0.0 0.00 0.10 0.00 93 1015.2
20260906073516 22 0.0 1.6 0.00 0.10 0.00 93 1015.2
20260906072516 22 0.0 0.0 0.00 0.10 0.00 93 1015.1
20260906071516 22 0.0 0.0 0.00 0.10 0.00 93 1015.1
20260906070516 22 0.0 0.0 0.00 0.10 0.00 93 1015.2
20260906065516 22 0.0 0.0 0.00 0.10 0.00 93 1015.2
20260906064516 22 0.0 0.0 0.00 0.10 0.00 92 1015.3
20260906063536 22 0.0 0.0 0.00 0.10 0.00 92 1015.2
20260906062516 22 0.0 3.2 0.00 0.10 0.00 92 1015.3
20260906061516 22 0.0 0.0 0.00 0.10 0.00 92 1015.2
20260906060516 23 0.0 0.0 0.00 0.10 0.00 92 1015.2
20260906055516 23 0.0 3.2 0.00 0.10 0.00 91 1015.3
20260906054516 23 0.0 3.2 0.00 0.10 0.00 91 1015.1
20260906053516 23 0.0 0.0 0.00 0.10 0.00 91 1015.0
20260906052556 23 0.0 0.0 0.00 0.10 0.00 91 1014.9
20260906051516 23 0.0 0.0 0.00 0.10 0.00 91 1015.0
20260906050536 23 0.0 1.6 0.00 0.10 0.00 90 1014.9
20260906045516 23 0.0 0.0 0.00 0.10 0.00 90 1014.8
20260906044516 23 0.0 0.0 0.00 0.10 0.00 90 1014.6
20260906043516 24 0.0 0.0 0.00 0.10 0.00 90 1014.5
20260906042516 24 0.0 0.0 0.00 0.10 0.00 89 1014.5
20260906041516 24 0.0 0.0 0.00 0.10 0.00 89 1014.5
20260906040516 24 0.0 0.0 0.00 0.10 0.00 89 1014.5
20260906035516 24 0.0 0.0 0.00 0.10 0.10 89 1014.5
20260906034516 24 0.0 0.0 0.00 0.10 0.10 89 1014.4
20260906033556 24 0.0 0.0 0.00 0.10 0.10 89 1014.3
20260906032516 24 0.0 0.0 0.00 0.10 0.10 89 1014.2
20260906031516 25 0.0 0.0 0.00 0.10 0.10 89 1014.1
20260906030516 25 0.0 0.0 0.00 0.10 0.10 89 1014.1
20260906025516 25 0.0 0.0 0.00 0.10 0.10 89 1014.0
20260906024516 25 0.0 0.0 0.00 0.10 0.10 89 1013.9
20260906023516 25 0.0 0.0 0.00 0.10 0.10 89 1013.9
20260906022516 25 0.0 0.0 0.00 0.10 0.10 88 1013.7
20260906021536 25 0.0 0.0 0.00 0.10 0.10 88 1013.6
20260906020556 25 0.0 0.0 0.00 0.10 0.10 88 1013.5
20260906015516 25 0.0 0.0 0.00 0.10 0.10 88 1013.2
20260906014556 25 0.0 0.0 0.00 0.10 0.10 88 1013.2
20260906013516 25 0.0 0.0 0.00 0.10 0.10 87 1013.0
20260906012516 25 0.0 0.0 0.00 0.10 0.10 87 1013.0
20260906011516 25 0.0 0.0 0.00 0.10 0.10 87 1012.8
20260906010516 25 0.0 0.0 0.00 0.10 0.10 86 1012.6
20260906005516 25 0.0 0.0 0.00 0.10 0.10 86 1012.5
20260906004536 25 0.0 0.0 0.00 0.10 0.10 87 1012.3
20260906003516 25 0.0 0.0 0.00 0.10 0.10 86 1012.4
20260906002516 25 0.0 0.0 0.00 0.10 0.10 86 1012.3
20260906001516 26 0.0 0.0 0.00 0.10 0.10 85 1012.4
20260906000516 26 0.0 0.0 0.00 0.10 0.10 85 1012.5
20260905235516 26 0.0 0.0 0.00 0.10 0.10 84 1012.4
20260905234516 26 0.0 0.0 0.00 0.10 0.10 84 1012.5
20260905233516 27 0.0 0.0 0.00 0.10 0.10 85 1012.5
20260905232516 27 0.0 0.0 0.00 0.10 0.10 85 1012.6
20260905231516 27 0.0 0.0 0.00 0.10 0.10 84 1012.5
20260905230516 27 0.0 0.0 0.00 0.10 0.10 83 1012.4
20260905225516 28 0.0 0.0 0.00 0.10 0.10 82 1012.3
20260905224516 28 0.0 0.0 0.00 0.10 0.10 80 1012.4
20260905223516 29 0.0 0.0 0.00 0.10 0.10 78 1012.4
20260905222516 29 0.0 1.6 0.00 0.10 0.10 78 1012.2
20260905221516 30 0.0 0.0 0.00 0.10 0.10 76 1012.4
20260905220516 31 0.0 1.6 0.00 0.10 0.10 74 1012.4
20260905215516 31 0.0 0.0 0.00 0.10 0.10 74 1012.0
20260905214516 31 0.0 0.0 0.00 0.10 0.10 70 1012.5
20260905213516 32 0.0 0.0 0.00 0.10 0.10 68 1012.6
20260905212516 33 0.0 0.0 0.00 0.10 0.10 65 1012.6
20260905211516 33 0.0 3.2 0.00 0.10 0.10 62 1012.5
20260905210516 33 0.0 0.0 0.00 0.10 0.10 61 1012.9
20260905205516 34 225 1.6 4.8 0.00 0.10 0.10 57 1012.8
20260905204516 34 0.0 3.2 0.00 0.10 0.10 58 1012.9
20260905203536 34 0.0 4.8 0.00 0.10 0.10 58 1013.1
20260905202516 34 270 1.6 9.7 0.00 0.10 0.10 58 1013.2
20260905201536 33 0.0 4.8 0.00 0.10 0.10 58 1013.2
20260905200516 33 270 1.6 8.0 0.00 0.10 0.10 56 1013.2
20260905195516 33 0.0 4.8 0.00 0.10 0.10 59 1013.3
20260905194516 33 0.0 8.0 0.00 0.10 0.10 59 1013.4
20260905193516 33 0.0 4.8 0.00 0.10 0.10 60 1013.5
20260905192516 33 0.0 4.8 0.00 0.10 0.10 60 1013.7
20260905191516 33 45 1.6 8.0 0.00 0.10 0.10 62 1013.8
20260905190516 33 0.0 1.6 0.00 0.10 0.10 62 1013.9
20260905185516 32 0.0 4.8 0.00 0.10 0.10 61 1014.0
20260905184516 32 270 1.6 4.8 0.00 0.10 0.10 60 1014.2
20260905183516 32 0.0 4.8 0.00 0.10 0.10 61 1014.4
20260905182516 32 0.0 40.2 0.00 0.10 0.10 61 1014.6
20260905181536 32 0.0 1.6 0.00 0.10 0.10 61 1014.6
20260905180516 32 270 1.6 9.7 0.00 0.10 0.10 59 1014.7
20260905175516 31 270 1.6 17.7 0.00 0.10 0.10 60 1014.6
20260905174516 31 270 1.6 9.7 0.00 0.10 0.10 62 1014.6
20260905173516 31 0.0 0.0 0.00 0.10 0.10 65 1014.7
20260905172516 31 0.0 4.8 0.00 0.10 0.10 60 1014.8
20260905171556 31 0.0 6.4 0.00 0.10 0.10 64 1014.9
20260905170516 30 0.0 0.0 0.00 0.10 0.10 63 1015.0
20260905165516 30 225 1.6 6.4 0.00 0.10 0.10 65 1015.1
20260905164516 29 225 1.6 11.3 0.00 0.10 0.10 65 1015.1
20260905163516 29 0.0 6.4 0.00 0.10 0.10 68 1015.3
20260905162516 28 0.0 6.4 0.00 0.10 0.10 65 1015.4
20260905161516 28 203 1.6 8.0 0.00 0.10 0.10 68 1015.3
20260905160516 27 270 1.6 8.0 0.00 0.10 0.10 67 1015.1
20260905155556 27 248 1.6 11.3 0.00 0.10 0.10 70 1015.2
20260905154516 27 0.0 11.3 0.00 0.10 0.10 73 1015.1
20260905153516 27 0.0 3.2 0.00 0.10 0.10 71 1015.5
20260905152516 26 0.0 3.2 0.00 0.10 0.10 71 1015.6
20260905151516 26 90 1.6 9.7 0.00 0.10 0.10 72 1015.6
20260905150516 25 90 1.6 9.7 0.00 0.10 0.10 75 1015.4
20260905145516 25 0.0 6.4 0.00 0.10 0.10 79 1015.4
20260905144516 25 0.0 6.4 0.00 0.10 0.10 78 1015.5
20260905143516 25 0.0 0.0 0.00 0.10 0.10 79 1015.7
20260905142516 24 0.0 6.4 0.00 0.10 0.10 81 1015.6
20260905141516 23 90 3.2 11.3 0.00 0.10 0.10 82 1015.6
20260905140516 23 68 1.6 4.8 0.00 0.10 0.10 85 1015.7
20260905134516 22 113 3.2 8.0 0.03 0.10 0.10 89 1015.5
20260905133516 22 0.0 3.2 0.03 0.10 0.10 90 1015.6
20260905132516 22 0.0 6.4 0.10 0.10 0.10 90 1015.5
20260905131516 22 113 1.6 6.4 0.10 0.10 0.10 92 1015.7
20260905130516 21 0.0 3.2 0.10 0.10 0.10 91 1015.8
20260905125516 21 0.0 6.4 0.10 0.10 0.10 91 1015.7
20260905124516 21 0.0 9.7 0.08 0.08 0.08 89 1015.7
20260905123516 22 0.0 6.4 0.08 0.08 0.08 86 1015.7
20260905122516 22 113 1.6 8.0 0.00 0.00 0.00 83 1016.2
20260905121516 23 113 1.6 12.9 0.00 0.00 0.00 84 1015.8
20260905120536 23 113 4.8 14.5 0.00 0.00 0.00 86 1015.7
20260905115516 23 113 3.2 9.7 0.00 0.00 0.00 90 1016.0
20260905114517 23 203 3.2 9.7 0.00 0.00 0.00 91 1015.5
20260905113516 23 0.0 0.0 0.00 0.00 0.00 91 1014.9
20260905112536 23 0.0 0.0 0.00 0.00 0.00 90 1014.5
20260905111516 23 0.0 0.0 0.00 0.00 0.00 90 1014.4
20260905110516 23 0.0 0.0 0.00 0.00 0.00 89 1014.3
20260905105516 24 0.0 0.0 0.00 0.00 0.00 89 1014.2
20260905104516 24 0.0 0.0 0.00 0.00 0.00 89 1014.3
20260905103536 24 0.0 0.0 0.00 0.00 0.00 88 1014.2
20260905102516 24 0.0 0.0 0.00 0.00 0.00 88 1014.2
20260905101516 24 0.0 0.0 0.00 0.00 0.00 89 1014.2
20260905100516 24 0.0 0.0 0.00 0.00 0.00 89 1014.3
20260905095516 25 0.0 0.0 0.00 0.00 0.00 88 1014.3
20260905094516 25 0.0 0.0 0.00 0.00 0.00 87 1014.4
20260905093516 25 0.0 0.0 0.00 0.00 0.00 87 1014.4
20260905092516 25 0.0 0.0 0.00 0.00 0.00 86 1014.5
20260905091536 25 0.0 0.0 0.00 0.00 0.00 85 1014.4
20260905090516 25 0.0 0.0 0.00 0.00 0.00 85 1014.3
20260905085516 25 0.0 1.6 0.00 0.00 0.00 83 1014.2
20260905084516 25 0.0 0.0 0.00 0.00 0.00 83 1014.0